Dewar Lakes, Nunavut

4:58 AM EDT on July 21, 2017 (GMT -0400)
Dewar Lakes

Weather History for CWUW - October, 2012

Change the Weather History Date:

Saturday, October 13, 2012

  Actual Average Record
Temperature  
Mean Temperature 24 °F -  
Max Temperature 26 °F 11 °F 35 °F (2002)
Min Temperature 21 °F 2 °F -5 °F (1999)
Degree Days  
Heating Degree Days 42    
Moisture  
Dew Point -    
Average Humidity    
Maximum Humidity    
Minimum Humidity    
Precipitation  
Precipitation 0.00 in 0.03 in - ()
Sea Level Pressure  
Sea Level Pressure 29.55 in    
Wind  
Wind Speed 12 mph ()    
Max Wind Speed 26 mph    
Max Gust Speed 23 mph    
Visibility 8.6 miles    
Events Snow    
Averages and records for this station are not official NWS values.
T = Trace of Precipitation, MM = Missing Value Source: Averaged Metar Reports

Daily Weather History Graph

Daily Weather History Graph

Search for Another Location

Airport or City:

Trip Planner

Search our weather history database for the weather conditions in past years. The results will help you decide how hot, cold, wet, or windy it might be!

Date:

Astronomy

Oct. 13, 2012 Rise Set
Actual Time 7:45 AM EDT 5:14 PM EDT
Civil Twilight 6:46 AM EDT 6:12 PM EDT
Nautical Twilight 5:40 AM EDT 7:18 PM EDT
Astronomical Twilight 4:31 AM EDT 8:27 PM EDT
Moon 4:46 AM EDT (10/13) 4:25 PM EDT (10/13)
Length of Visible Light 11h 25m
Length of Day
9h 28m
Waning Crescent, 5% of the Moon is Illuminated
Oct 13
Waning Crescent
Oct 15
New
Oct 21
First Quarter
Oct 29
Full
Nov 6
Last Quarter

Hourly Weather History & Observations

Time (EDT) Temp. Windchill Dew Point Humidity Pressure Visibility Wind Dir Wind Speed Gust Speed Precip Events Conditions
12:00 AM 23.0 °F 7.2 °F - N/A% 29.59 in 9.0 mi East 23.0 mph - N/A   Clear
12:16 AM 24.8 °F 8.7 °F - N/A% 29.46 in 9.0 mi ESE 26.5 mph - N/A Snow Light Snow
12:35 AM 24.8 °F 11.5 °F - N/A% 29.46 in 9.0 mi East 17.3 mph - N/A   Clear
1:00 AM 24.8 °F 10.7 °F - N/A% 29.60 in 9.0 mi ESE 19.6 mph - N/A   Clear
1:08 AM 24.8 °F 9.6 °F - N/A% 29.47 in 9.0 mi ESE 23.0 mph - N/A   Clear
1:12 AM 24.8 °F 10.0 °F - N/A% 29.47 in 9.0 mi ESE 21.9 mph - N/A Snow Light Snow
2:00 AM 23 °F - - % 29.61 in 9 mi ESE 26.5 mph - -  
3:00 AM 23.0 °F 7.6 °F - N/A% 29.62 in 9.0 mi ESE 21.9 mph - N/A Snow Light Snow
3:36 AM 24.8 °F 10.0 °F - N/A% 29.48 in 9.0 mi ESE 21.9 mph - N/A   Clear
3:48 AM 23.0 °F 8.0 °F - N/A% 29.48 in 9.0 mi East 20.7 mph - N/A Snow Light Snow
4:00 AM 23.0 °F 8.7 °F - N/A% 29.62 in 9.0 mi East 18.4 mph - N/A Snow Light Snow
4:04 AM 21.2 °F 6.8 °F - N/A% 29.48 in 9.0 mi East 17.3 mph 23.0 mph N/A   Clear
5:00 AM 22 °F - - % 29.64 in 9 mi East 11.5 mph - -  
5:00 AM 21.2 °F 10.1 °F - N/A% 29.64 in 9.0 mi East 10.4 mph - N/A   Clear
6:00 AM 21.2 °F 8.3 °F - N/A% 29.65 in 9.0 mi ESE 13.8 mph - N/A   Clear
7:00 AM 23.0 °F 12.4 °F - N/A% 29.64 in 9.0 mi East 10.4 mph - N/A   Clear
8:00 AM 24 °F - - % 29.65 in 9 mi East 8.1 mph - -  
8:00 AM 23.0 °F 13.9 °F - N/A% 29.65 in 9.0 mi East 8.1 mph - N/A   Clear
8:23 AM 24.8 °F 14.6 °F - N/A% 29.52 in 9.0 mi ESE 10.4 mph - N/A   Mostly Cloudy
8:34 AM 23.0 °F 13.1 °F - N/A% 29.52 in 9.0 mi ESE 9.2 mph - N/A   Scattered Clouds
8:49 AM 24.8 °F 14.6 °F - N/A% 29.52 in 9.0 mi ESE 10.4 mph - N/A   Mostly Cloudy
8:59 AM 24.8 °F 14.6 °F - N/A% 29.52 in 9.0 mi ESE 10.4 mph - N/A   Scattered Clouds
10:00 AM 24.8 °F 15.3 °F - N/A% 29.64 in 9.0 mi ESE 9.2 mph - N/A   Clear
11:00 AM 26 °F - - % 29.63 in 9 mi ESE 2.3 mph - -  
12:00 PM 26.6 °F - - N/A% 29.62 in 9.0 mi Calm Calm - N/A   Clear
12:56 PM 26.6 °F - - N/A% 29.49 in 9.0 mi South 2.3 mph - N/A   Mostly Cloudy
1:00 PM 26.6 °F - - N/A% 29.62 in 9.0 mi SSE 2.3 mph - N/A   Mostly Cloudy
1:17 PM 26.6 °F - - N/A% 29.49 in 9.0 mi SSE 2.3 mph - N/A   Overcast
1:48 PM 26.6 °F 22.6 °F - N/A% 29.50 in 9.0 mi North 3.5 mph - N/A   Scattered Clouds
2:00 PM 26 °F - - % 29.62 in 9 mi NNE 2.3 mph - -  
2:00 PM 26.6 °F - - N/A% 29.62 in 9.0 mi NNE 2.3 mph - N/A   Partly Cloudy
2:46 PM 26.6 °F 22.6 °F - N/A% 29.50 in 9.0 mi SSW 3.5 mph - N/A   Overcast
3:00 PM 26.6 °F 22.6 °F - N/A% 29.63 in 9.0 mi South 3.5 mph - N/A   Mostly Cloudy
4:00 PM 24.8 °F - - N/A% 29.63 in 9.0 mi SW 2.3 mph - N/A   Overcast
5:00 PM 23.0 °F 18.4 °F - N/A% 29.62 in 9.0 mi West 3.5 mph - N/A   Mostly Cloudy
6:20 PM 23.0 °F 15.8 °F - N/A% 29.49 in 9.0 mi NNW 5.8 mph - N/A   Overcast
6:41 PM 23.0 °F 17.0 °F - N/A% 29.49 in 9.0 mi NNW 4.6 mph - N/A   Overcast
6:51 PM 23.0 °F 17.0 °F - N/A% 29.49 in 9.0 mi NW 4.6 mph - N/A   Overcast
7:00 PM 23.0 °F 15.8 °F - N/A% 29.62 in 9.0 mi NW 5.8 mph - N/A   Overcast
7:49 PM 23.0 °F 15.8 °F - N/A% 29.49 in 9.0 mi NNW 5.8 mph - N/A   Overcast
8:00 PM 23.0 °F 15.8 °F - N/A% 29.62 in 9.0 mi North 5.8 mph - N/A   Overcast
8:09 PM 23.0 °F 14.7 °F - N/A% 29.48 in 9.0 mi North 6.9 mph - N/A   Overcast
9:00 PM 23.0 °F 15.8 °F - N/A% 29.61 in 9.0 mi NW 5.8 mph - N/A   Overcast
9:10 PM 23.0 °F 17.0 °F - N/A% 29.48 in 9.0 mi NW 4.6 mph - N/A   Overcast
10:00 PM 21.2 °F 11.7 °F - N/A% 29.60 in 9.0 mi West 8.1 mph - N/A   Overcast
10:52 PM 23.0 °F 13.1 °F - N/A% 29.46 in 9.0 mi West 9.2 mph - N/A   Overcast
11:00 PM 22 °F - - % 29.59 in 9 mi West 8.1 mph - -   Overcast
11:00 PM 23.0 °F 13.9 °F - N/A% 29.59 in 9.0 mi West 8.1 mph - N/A   Overcast
11:07 PM 23.0 °F 13.1 °F - N/A% 29.45 in 9.0 mi West 9.2 mph - N/A   Overcast
11:39 PM 23.0 °F 13.1 °F - N/A% 29.46 in 7.0 mi West 9.2 mph - N/A   Overcast
11:42 PM 23.0 °F 13.1 °F - N/A% 29.46 in 7.0 mi West 9.2 mph - N/A   Overcast
11:47 PM 23.0 °F 13.1 °F - N/A% 29.46 in 3.5 mi West 9.2 mph - N/A   Overcast
11:49 PM 23.0 °F 13.1 °F - N/A% 29.46 in 3.0 mi West 9.2 mph - N/A   Overcast
11:55 PM 23.0 °F 13.1 °F - N/A% 29.46 in 2.1 mi West 9.2 mph - N/A   Overcast